INTELSAT 906 (IS-906) (27513 NORAD) Tracking and Keplerian Element Data

This shows tracking and keplerian element data for the satellite.

Feedback or suggestion? Click here.




ElementValue
Catalog27513
NameINTELSAT 906 (IS-906)
Epoch Orbit5948
Epoch Day349.1833299
Epoch Year2018
RAAN308.3092
Inclination0.0111
Eccentricity0.0002138
Argument of Perigee312.2785
Mean Anonmoly313.3483
Mean Motion1.00271307
Decay Rate2.7E-07
L11 27513U 02041A 18349.18332990 .00000027 00000-0 00000+0 0 9993
L22 27513 0.0111 308.3092 0002138 312.2785 313.3483 1.00271307 59482

Live tracking and technical data element details for INTELSAT 906 (IS-906) (NORAD 27513). INTELSAT 906 (IS-906) can be tracked NOW for your location showing map with azimuth and elevation plus other details from your city location.

Track the satellite on the map from your city or location and see movement details for azimuth, elevation, latitude, longitude, range, height, and movement on the map or in text.







IsCatalogInMostPopularTable: catalog: 27513, numindb: 58
Update: records affected: 1



GetName: 27513 INTELSAT 906 (IS-906)

Hit Count: updated at: Sun, 16 Dec 2018 09:57:34 GMT